Regional Weather Roundup
Issued by NWS

Home | Current Version | Previous Version | Text Only | Print | Product List | Glossary Off
Versions: 1 2 3 4 5 6 7 8 9 10 11 12 13 14 15 16 17 18 19 20 21 22 23 24 25 26 27 28 29 30 31 32 33 34 35 36 37 38 39 40 41 42 43 44 45 46 47 48 49 50

000
ASUS45 KTFX 190304
RWRMT
MONTANA HOURLY WEATHER ROUNDUP
NATIONAL WEATHER SERVICE GREAT FALLS MT
904 PM MDT THU SEP 18 2014

NOTE: "FAIR" INDICATES FEW OR NO CLOUDS BELOW 12000 FEET WITH NO
SIGNIFICANT WEATHER AND/OR OBSTRUCTIONS TO VISIBILITY.

* THESE STATIONS ARE NOT UNDER NWS QUALITY CONTROL. THEY DO NOT
   REPORT WEATHER SUCH AS PRECIPITATION OR FOG.

MTZ001>007-043-190400-
WEST OF THE DIVIDE
CITY           SKY/WX    TMP DP  RH WIND       PRES   REMARKS
KALISPELL      MOCLDY    68  43  40 SW8       29.75R
MISSOULA       MOCLDY    70  43  38 NW14      29.83R
BUTTE          MOCLDY    57  43  60 N5        29.92R
MULLAN PASS    CLOUDY    54  41  62 VRB7      29.94R
* ESSEX        N/A       60  43  54 N/A        N/A
* LINCOLN      N/A       65  42  43 S4G10      N/A
* LOOKOUT PASS N/A       60  43  54 SE6G12     N/A
* POLSON       N/A       64  42  45 SE2        N/A
* RONAN APT    MOCLDY    70  41  35 SW8        N/A
* SEELEY LAKE  N/A       67  41  39 SW2G8      N/A
* THOMP F APT  MOCLDY    59  48  67 NE4G13     N/A
$$

MTZ008-052>055-190400-
SOUTHWEST MONTANA
CITY           SKY/WX    TMP DP  RH WIND       PRES   REMARKS
BOZEMAN        MOCLDY    57  54  90 SE12      29.85R
DILLON         PTCLDY    57  46  67 SW5       29.88R
W YELLOWSTONE  CLOUDY    57  50  78 SW9       30.01R
* THREE FORKS  PTCLDY    63  63 100 N/A        N/A
* BOULDER HILL N/A       55  47  75 S3         N/A
* MONIDA PASS  N/A       55  54  96 SE9        N/A
* RAYNOLDS PAS N/A       56  54  93 N4         N/A
* WHITEHALL    N/A       63  50  63 S4G12      N/A
* WISE RIVER   N/A       58  38  47 NW5G15     N/A
$$

MTZ009>010-012-014-046-048-049-054-190400-
EAST SLOPES AND CENTRAL MONTANA
CITY           SKY/WX    TMP DP  RH WIND       PRES   REMARKS
CUT BANK       PTCLDY    61  39  44 W10       29.74R
GREAT FALLS    HAZE      61  45  56 W9        29.74R
HELENA         MOCLDY    66  55  68 SW7       29.78R
* CONRAD       PTCLDY    68  45  44 W11G18     N/A
* EAST GLACIER N/A       61  39  44 W6G17      N/A
* MONARCH      N/A       61  39  44 S9         N/A
* PENDROY      N/A       63  40  43 W13        N/A
* ROGERS PASS  N/A       64  39  40 SE11G19    N/A
* SAINT MARY   N/A       63  39  41 S5G20      N/A
* SWEET GRASS  N/A       64  38  38 W11        N/A
$$

MTZ011-013-016-021-035-040-045-047-050-051-190400-
NORTH CENTRAL MONTANA
CITY           SKY/WX    TMP DP  RH WIND       PRES   REMARKS
HAVRE          PTCLDY    64  52  65 SW12      29.62R
LEWISTOWN      MOCLDY    64  50  61 SW13      29.77R
* CHESTER      N/A       69  39  34 NW8G13     N/A
* DENTON       N/A       59  51  75 S5         N/A
* GEYSER       N/A       57  46  67 S13        N/A
* JUDITH GAP   N/A       63  53  70 SW8        N/A
* LOMA         N/A       73  47  40 SW10G17    N/A
$$

MTZ017>020-022>027-061-062-190400-
NORTHEAST MONTANA
CITY           SKY/WX    TMP DP  RH WIND       PRES   REMARKS
GLASGOW        MOCLDY    70  52  53 SW5       29.62R
GLENDIVE       CLOUDY    70  55  59 SW12      29.69R
JORDAN         CLOUDY    64  55  73 CALM      29.67R
SIDNEY         CLOUDY    63  54  73 CALM      29.64R
WOLF POINT     CLOUDY    63  55  75 CALM      29.60R
* BEAVER HILL  N/A       70  53  55 S14        N/A
* CIRCLE       N/A       68  55  63 N/A        N/A
* LINDSAY DVD  N/A       65  52  63 S2         N/A
* NAVAJO       N/A       66  51  59 W11        N/A
* SACO         N/A       61  51  70 N/A        N/A
$$

MTZ028>042-056>058-190400-
SOUTHCENTRAL AND SOUTHEAST MONTANA
CITY           SKY/WX    TMP DP  RH WIND       PRES   REMARKS
BAKER          CLOUDY    70  50  49 SW12      29.75R
BILLINGS       CLOUDY    64  54  70 W9        29.79S
LIVINGSTON     MOCLDY    66  48  52 W20G30    29.85R
MILES CITY     CLOUDY    72  54  53 S13       29.73R
* LAUREL APT   CLOUDY    61  52  72 SW6        N/A
* ROUNDUP APT  CLOUDY    66  55  68 N/A        N/A
* ALZADA       N/A       71  56  59 N9         N/A
* HYSHAM       N/A       68  50  53 W4G14      N/A
* LAME DEER    N/A       60  55  84 SW7        N/A
* REED POINT   N/A       60  56  87 N/A        N/A
* ROSCOE HILL  N/A       60  46  60 S6         N/A
$$

REGIONAL REPORTS...DAKOTAS
CITY           SKY/WX    TMP DP  RH WIND       PRES   REMARKS
WILLISTON      CLOUDY    66  54  65 E3        29.59S
DICKINSON      CLOUDY    66  61  84 S9        29.66F
BEACH          N/A       66  52  61 SW12      29.70R
CROSBY         CLEAR     63  55  75 SW10      29.56F
TIOGA          CLEAR     68  50  53 W5        29.63R
WATFORD CITY   CLEAR     66  52  61 SW7       29.60R
BISMARCK       CLOUDY    72  63  73 S8        29.69R
GRAND FORKS    CLOUDY    70  59  68 S17G23    29.69F
FARGO          CLOUDY    70  55  59 S17G26    29.77S
BUFFALO SD     MOCLDY    70  57  64 S9        29.67S
RAPID CITY     MOCLDY    72  54  53 SE6       29.73R
$$

REGIONAL REPORTS...WYOMING/IDAHO/WASHINGTON
CITY           SKY/WX    TMP DP  RH WIND       PRES   REMARKS
GILLETTE       CLOUDY    63  52  68 NW5       29.82R
SHERIDAN       CLOUDY    63  55  75 W8G26     29.90R
CODY           CLOUDY   N/A N/A N/A N/A        N/A
YELLOWSTONE LA CLOUDY    50  48  93 CALM      30.14R
SALMON         PTCLDY    61  46  58 S6        29.81R
MULLAN PASS    CLOUDY    54  41  62 VRB7      29.94S
SAND POINT     CLOUDY    63  54  73 CALM      29.77R
SPOKANE        CLOUDY    72  46  40 SW16      29.80R
$$

REGIONAL REPORTS...SASKATCHEWAN
CITY           SKY/WX    TMP DP  RH WIND       PRES   REMARKS
SWIFT CURRENT  HAZE      59  48  67 SW10      29.55R

$$



USA.gov is the U.S. government's official web portal to all federal, state and local government web resources and services.